Lake Charles, LA

6:33 PM CDT on September 29, 2016 (GMT -0500)
Lake Charles Regional

Weather History for KLCH - February, 2013

Change the Weather History Date:

Monday, February 4, 2013

  Actual Average Record
Temperature  
Mean Temperature 58 °F 53 °F  
Max Temperature 69 °F 63 °F 80 °F (1957)
Min Temperature 47 °F 44 °F 19 °F (1996)
Degree Days  
Heating Degree Days 7 12  
Month to date heating degree days 28 49  
Since 1 July heating degree days 810 1040  
Cooling Degree Days 0 0  
Month to date cooling degree days 0 0  
Year to date cooling degree days 24 10  
Growing Degree Days 10 (Base 50)    
Moisture  
Dew Point 55 °F    
Average Humidity 77    
Maximum Humidity 93    
Minimum Humidity 61    
Precipitation  
Precipitation 0.03 in 0.13 in 3.34 in (1923)
Month to date precipitation 0.03 0.53  
Year to date precipitation 11.41 5.76  
Snow  
Snow 0.00 in 0.00 in 0.00 in ()
Month to date snowfall 0.0 0.0  
Since 1 July snowfall 0.0 T  
Snow Depth 0.00 in    
Sea Level Pressure  
Sea Level Pressure 29.99 in    
Wind  
Wind Speed 6 mph (ESE)    
Max Wind Speed 16 mph    
Max Gust Speed 18 mph    
Visibility 10 miles    
Events Rain    
T = Trace of Precipitation, MM = Missing Value Source: NWS Daily Summary

Daily Weather History Graph

Daily Weather History Graph

Search for Another Location

Airport or City:

Trip Planner

Search our weather history database for the weather conditions in past years. The results will help you decide how hot, cold, wet, or windy it might be!

Date:

Astronomy

Feb. 04, 2013 Rise Set
Actual Time 7:01 AM CST 5:52 PM CST
Civil Twilight 6:36 AM CST 6:17 PM CST
Nautical Twilight 6:07 AM CST 6:46 PM CST
Astronomical Twilight 5:39 AM CST 7:14 PM CST
Moon 1:32 AM CST (2/4) 12:23 PM CST (2/4)
Length of Visible Light 11h 41m
Length of Day
10h 51m
Last Quarter, 37% of the Moon is Illuminated
Feb 4
Last Quarter
Feb 10
New
Feb 17
First Quarter
Feb 25
Full
Mar 4
Last Quarter

Hourly Weather History & Observations

Time (CST) Temp. Dew Point Humidity Pressure Visibility Wind Dir Wind Speed Gust Speed Precip Events Conditions
12:53 AM 48.0 °F 44.1 °F 86% 30.11 in 10.0 mi Calm Calm - N/A   Clear
1:53 AM 46.9 °F 45.0 °F 93% 30.10 in 10.0 mi Calm Calm - N/A   Clear
2:53 AM 50.0 °F 46.9 °F 89% 30.07 in 10.0 mi Calm Calm - N/A   Clear
4:53 AM 50.0 °F 46.9 °F 89% 30.06 in 10.0 mi Calm Calm - N/A   Clear
5:53 AM 52.0 °F 48.9 °F 89% 30.05 in 10.0 mi ESE 3.5 mph - N/A   Clear
6:53 AM 53.1 °F 50.0 °F 89% 30.05 in 10.0 mi ESE 3.5 mph - N/A   Clear
7:53 AM 55.0 °F 51.1 °F 86% 30.06 in 10.0 mi East 3.5 mph - N/A   Clear
8:53 AM 57.9 °F 53.1 °F 84% 30.05 in 10.0 mi ESE 4.6 mph - N/A   Clear
9:53 AM 62.1 °F 55.9 °F 80% 30.05 in 10.0 mi SSE 8.1 mph - N/A   Partly Cloudy
10:53 AM 68.0 °F 55.0 °F 63% 30.05 in 10.0 mi SSE 12.7 mph - N/A   Mostly Cloudy
11:53 AM 69.1 °F 55.0 °F 61% 30.03 in 10.0 mi SE 11.5 mph - N/A   Overcast
12:53 PM 66.9 °F 55.9 °F 68% 30.00 in 10.0 mi SSE 10.4 mph - 0.00 in Rain Light Rain
1:09 PM 66.2 °F 57.2 °F 73% 29.97 in 10.0 mi SSE 8.1 mph - 0.00 in Rain Light Rain
1:16 PM 66.2 °F 57.2 °F 73% 29.96 in 10.0 mi SE 6.9 mph - 0.00 in Rain Light Rain
1:53 PM 66.0 °F 57.9 °F 75% 29.97 in 10.0 mi East 6.9 mph - 0.00 in Rain Light Rain
2:53 PM 66.0 °F 57.9 °F 75% 29.94 in 10.0 mi East 8.1 mph - 0.00 in   Overcast
3:53 PM 66.0 °F 57.0 °F 73% 29.93 in 10.0 mi ESE 8.1 mph - N/A   Overcast
4:53 PM 66.0 °F 57.0 °F 73% 29.92 in 10.0 mi ESE 8.1 mph - N/A   Scattered Clouds
5:53 PM 64.0 °F 57.0 °F 78% 29.92 in 10.0 mi ESE 6.9 mph - N/A   Overcast
6:53 PM 63.0 °F 57.0 °F 81% 29.94 in 10.0 mi East 4.6 mph - N/A   Overcast
7:06 PM 62.6 °F 57.2 °F 82% 29.92 in 10.0 mi East 4.6 mph - N/A   Overcast
7:45 PM 64.4 °F 59.0 °F 83% 29.92 in 10.0 mi ESE 8.1 mph - N/A   Overcast
7:53 PM 64.0 °F 59.0 °F 84% 29.94 in 10.0 mi ESE 6.9 mph - N/A   Overcast
8:53 PM 63.0 °F 61.0 °F 93% 29.95 in 7.0 mi SE 9.2 mph - 0.02 in Rain Light Rain
9:53 PM 63.0 °F 60.1 °F 90% 29.95 in 10.0 mi ESE 8.1 mph - 0.00 in Rain Light Rain
10:53 PM 62.1 °F 60.1 °F 93% 29.96 in 6.0 mi SE 8.1 mph - 0.00 in   Overcast
11:53 PM 62.1 °F 60.1 °F 93% 29.95 in 6.0 mi East 4.6 mph - 0.00 in Rain Light Rain